This is the latest recevied weather packets stored in our database for station/object KE5BM-13. If no packets are shown the sender has not sent any weather packets the latest 10 day(s).
| Time | Temp. | Humidity | Pressure | Rain* | Wind** | Luminosity | Snow |
|---|---|---|---|---|---|---|---|
| 1777919779 | 17.22° C | 46% | 1009.5 hPa | 0 mm | - | - | - |
| 1777919477 | 17.22° C | 46% | 1009.7 hPa | 0 mm | - | - | - |
| 1777919178 | 17.22° C | 45% | 1009.5 hPa | 0 mm | - | - | - |
| 1777918875 | 17.22° C | 47% | 1009.3 hPa | 0 mm | - | - | - |
| 1777918576 | 17.22° C | 46% | 1009.4 hPa | 0 mm | - | - | - |
| 1777918275 | 17.22° C | 48% | 1009.5 hPa | 0 mm | - | - | - |
| 1777917975 | 17.22° C | 46% | 1009.3 hPa | 0 mm | - | - | - |
| 1777917674 | 17.22° C | 49% | 1009.4 hPa | 0 mm | - | - | - |
| 1777917374 | 17.22° C | 47% | 1009.4 hPa | 0 mm | - | - | - |
| 1777917075 | 17.22° C | 48% | 1009.6 hPa | 0 mm | - | - | - |
| 1777916773 | 16.67° C | 47% | 1009.7 hPa | 0 mm | - | - | - |
| 1777916471 | 16.67° C | 45% | 1010 hPa | 0 mm | - | - | - |
| 1777916170 | 17.22° C | 46% | 1009.7 hPa | 0 mm | - | - | - |
| 1777915871 | 17.22° C | 46% | 1009.6 hPa | 0 mm | - | - | - |
| 1777915569 | 17.22° C | 50% | 1009.5 hPa | 0 mm | - | - | - |
| 1777915270 | 17.78° C | 46% | 1009.7 hPa | 0 mm | - | - | - |
| 1777914968 | 17.78° C | 50% | 1009.5 hPa | 0 mm | - | - | - |
| 1777914667 | 17.78° C | 48% | 1009.5 hPa | 0 mm | - | - | - |
| 1777914365 | 17.78° C | 47% | 1009.6 hPa | 0 mm | - | - | - |
| 1777914065 | 17.22° C | 47% | 1009.7 hPa | 0 mm | - | - | - |
| 1777913766 | 17.22° C | 47% | 1009.7 hPa | 0 mm | - | - | - |
| 1777913464 | 17.78° C | 48% | 1009.8 hPa | 0 mm | - | - | - |
| 1777913164 | 17.22° C | 49% | 1009.8 hPa | 0 mm | - | - | - |
| 1777912863 | 17.22° C | 49% | 1009.9 hPa | 0 mm | - | - | - |
| 1777912562 | 17.22° C | 52% | 1009.8 hPa | 0 mm | - | - | - |
* Rain latest hour (hover to see other rain measurements)
** Current wind speed in m/s (hover to see current wind gust speed)